New York JFK, NY

9:01 PM EST on November 24, 2017 (GMT -0500)
Kennedy International

Weather History for KJFK - September, 2001

Change the Weather History Date:

Tuesday, September 11, 2001

  Actual Average Record
Temperature  
Mean Temperature 72 °F 70 °F  
Max Temperature 82 °F 77 °F 96 °F (1983)
Min Temperature 64 °F 63 °F 49 °F (1967)
Degree Days  
Heating Degree Days 0 1  
Month to date heating degree days 1  
Since 1 July heating degree days 2  
Cooling Degree Days 8 5  
Month to date cooling degree days 72  
Year to date cooling degree days 933  
Growing Degree Days 22 (Base 50)    
Moisture  
Dew Point 57 °F    
Average Humidity 59    
Maximum Humidity 87    
Minimum Humidity 39    
Precipitation  
Precipitation 0.00 in 0.10 in 1.56 in (1968)
Month to date precipitation 1.16  
Year to date precipitation 30.12  
Snow  
Snow 0.00 in 0.00 in - ()
Month to date snowfall 0.0  
Since 1 July snowfall 0.0  
Snow Depth -    
Sea Level Pressure  
Sea Level Pressure 30.10 in    
Wind  
Wind Speed 9 mph (NNW)    
Max Wind Speed 15 mph    
Max Gust Speed 20 mph    
Visibility 10 miles    
Events      
T = Trace of Precipitation, MM = Missing Value Source: NWS Daily Summary

Daily Weather History Graph

Daily Weather History Graph

Search for Another Location

Airport or City:

Trip Planner

Search our weather history database for the weather conditions in past years. The results will help you decide how hot, cold, wet, or windy it might be!

Date:

Astronomy

Sep. 11, 2001 Rise Set
Actual Time 6:32 AM EDT 7:10 PM EDT
Civil Twilight 6:04 AM EDT 7:38 PM EDT
Nautical Twilight 5:31 AM EDT 8:10 PM EDT
Astronomical Twilight 4:58 AM EDT 8:44 PM EDT
Moon No Moon Rise 3:05 PM EDT (9/11)
Length of Visible Light 13h 33m
Length of Day
12h 38m
Last Quarter, 41% of the Moon is Illuminated
Sep 11
Last Quarter
Sep 17
New
Sep 24
First Quarter
Oct 2
Full
Oct 10
Last Quarter

Hourly Weather History & Observations

Time (EDT) Temp. Heat Index Dew Point Humidity Pressure Visibility Wind Dir Wind Speed Gust Speed Precip Events Conditions
12:51 AM 70.0 °F - 62.1 °F 76% 30.08 in 10.0 mi NNW 10.4 mph - N/A   Scattered Clouds
1:51 AM 68.0 °F - 63.0 °F 84% 30.08 in 10.0 mi NW 9.2 mph - N/A   Partly Cloudy
2:51 AM 66.9 °F - 63.0 °F 87% 30.07 in 10.0 mi NNW 8.1 mph - N/A   Clear
3:51 AM 66.0 °F - 62.1 °F 87% 30.08 in 10.0 mi NW 9.2 mph - N/A   Clear
4:51 AM 64.9 °F - 59.0 °F 81% 30.08 in 10.0 mi NW 6.9 mph - N/A   Clear
5:51 AM 64.0 °F - 57.9 °F 80% 30.09 in 10.0 mi North 4.6 mph - N/A   Partly Cloudy
6:51 AM 64.0 °F - 57.9 °F 80% 30.11 in 10.0 mi North 4.6 mph - N/A   Scattered Clouds
7:51 AM 66.9 °F - 57.9 °F 73% 30.12 in 10.0 mi NW 6.9 mph - N/A   Partly Cloudy
8:51 AM 70.0 °F - 57.0 °F 63% 30.13 in 10.0 mi NW 11.5 mph - N/A   Partly Cloudy
9:51 AM 73.0 °F - 55.9 °F 55% 30.14 in 10.0 mi North 8.1 mph - N/A   Scattered Clouds
10:51 AM 75.9 °F - 54.0 °F 46% 30.13 in 10.0 mi NNW 6.9 mph - N/A   Scattered Clouds
11:51 AM 78.1 °F - 52.0 °F 40% 30.12 in 10.0 mi North 12.7 mph - N/A   Scattered Clouds
12:51 PM 79.0 °F - 55.0 °F 44% 30.10 in 10.0 mi NNW 15.0 mph 19.6 mph N/A   Scattered Clouds
1:51 PM 80.1 °F 80.1 °F 55.0 °F 42% 30.09 in 10.0 mi North 11.5 mph 18.4 mph N/A   Scattered Clouds
2:51 PM 80.1 °F 80.2 °F 55.9 °F 43% 30.07 in 10.0 mi North 12.7 mph 18.4 mph N/A   Scattered Clouds
3:51 PM 81.0 °F 80.5 °F 54.0 °F 39% 30.06 in 10.0 mi NW 15.0 mph 18.4 mph N/A   Scattered Clouds
4:51 PM 81.0 °F 80.7 °F 55.0 °F 41% 30.06 in 10.0 mi NNE 11.5 mph - N/A   Scattered Clouds
5:51 PM 80.1 °F 80.2 °F 55.9 °F 43% 30.06 in 10.0 mi NE 8.1 mph - N/A   Scattered Clouds
6:51 PM 77.0 °F - 55.9 °F 48% 30.08 in 10.0 mi NE 6.9 mph - N/A   Scattered Clouds
7:51 PM 73.9 °F - 57.0 °F 55% 30.09 in 10.0 mi North 6.9 mph - N/A   Scattered Clouds
8:51 PM 73.9 °F - 54.0 °F 50% 30.12 in 10.0 mi NNW 9.2 mph - N/A   Partly Cloudy
9:51 PM 73.0 °F - 52.0 °F 48% 30.13 in 10.0 mi North 10.4 mph - N/A   Partly Cloudy
10:51 PM 70.0 °F - 53.1 °F 55% 30.14 in 10.0 mi NNW 8.1 mph - N/A   Clear
11:51 PM 70.0 °F - 52.0 °F 53% 30.15 in 10.0 mi North 11.5 mph - N/A   Clear